�N����,����,�g�[���i�䏊�j���x,�g�[�����x,��g�[���i��Q���j���x,����
 2004/11/01, 0:00,23.1,68,22.6,18.3
 2004/11/01, 0:15,23.1,69,22.5,18.3
 2004/11/01, 0:30,23,69,22.5,18.3
 2004/11/01, 0:45,23,70,22.5,18.4
 2004/11/01, 1:00,22.9,70,22.5,18.4
 2004/11/01, 1:15,22.9,70,22.4,18.4
 2004/11/01, 1:30,22.8,70,22.3,18.5
 2004/11/01, 1:45,22.6,71,22.1,18.5
 2004/11/01, 2:00,22.5,71,22,18.5
 2004/11/01, 2:15,22.6,71,21.9,18.6
 2004/11/01, 2:30,22.6,69,21.9,18.1
 2004/11/01, 2:45,22.6,70,21.8,18.2
 2004/11/01, 3:00,22.6,70,21.8,18.2
 2004/11/01, 3:15,22.6,70,21.6,18.2
 2004/11/01, 3:30,22.5,70,21.5,18.3
 2004/11/01, 3:45,22.5,70,21.5,18.3
 2004/11/01, 4:00,22.5,69,21.4,18.3
 2004/11/01, 4:15,22.5,69,21.3,18
 2004/11/01, 4:30,22.5,69,21.3,18.1
 2004/11/01, 4:45,22.4,69,21.2,18.1
 2004/11/01, 5:00,22.4,69,21.1,18.1
 2004/11/01, 5:15,22.4,69,21.1,18.1
 2004/11/01, 5:30,22.3,69,21,18.2
 2004/11/01, 5:45,22.3,69,21,18.2
 2004/11/01, 6:00,22.3,69,20.9,18.3
 2004/11/01, 6:15,22.2,69,20.9,18.3
 2004/11/01, 6:30,22.1,69,20.8,18.3
 2004/11/01, 6:45,22.1,69,21,18.4
 2004/11/01, 7:00,22.3,68,20.9,18.7
 2004/11/01, 7:15,22.4,69,20.8,18.6
 2004/11/01, 7:30,22.4,67,20.8,18.5
 2004/11/01, 7:45,22.6,69,20.9,18.6
 2004/11/01, 8:00,22.6,69,21.1,18.6
 2004/11/01, 8:15,22.5,71,21.1,18.6
 2004/11/01, 8:30,22.7,69,21,18.7
 2004/11/01, 8:45,22.4,69,21,18.2
 2004/11/01, 9:00,22.3,70,20.9,18.2
 2004/11/01, 9:15,22.2,70,20.9,18.1
 2004/11/01, 9:30,22.2,69,20.9,18.2
 2004/11/01, 9:45,22.5,68,20.8,18.2
 2004/11/01,10:00,22.6,67,20.8,18.2
 2004/11/01,10:15,22.6,66,20.8,18.1
 2004/11/01,10:30,22.6,66,20.8,18.1
 2004/11/01,10:45,22.5,67,20.9,18.2
 2004/11/01,11:00,22.3,67,20.9,18.2
 2004/11/01,11:15,22.3,67,20.9,18.2
 2004/11/01,11:30,22.6,65,20.9,18.2
 2004/11/01,11:45,22.8,64,21,18.3
 2004/11/01,12:00,22.9,64,21.1,18.3
 2004/11/01,12:15,22.9,63,21.2,18.4
 2004/11/01,12:30,23,67,21.2,18.4
 2004/11/01,12:45,22.9,62,21.3,18.4
 2004/11/01,13:00,23,61,21.9,18.3
 2004/11/01,13:15,23,61,22.5,18.3
 2004/11/01,13:30,23,61,22.5,18.4
 2004/11/01,13:45,23.2,61,22.9,18.4
 2004/11/01,14:00,23.3,61,23.4,18.2
 2004/11/01,14:15,23.4,62,23.5,18.2
 2004/11/01,14:30,23.4,59,23.7,18.3
 2004/11/01,14:45,23.5,59,24.3,18.3
 2004/11/01,15:00,23.5,58,24.6,18.3
 2004/11/01,15:15,23.5,57,24.4,18.4
 2004/11/01,15:30,23.4,58,24.7,18.1
 2004/11/01,15:45,23.4,59,24.5,18.4
 2004/11/01,16:00,23.2,59,24.4,18.4
 2004/11/01,16:15,23.1,59,23.8,18.4
 2004/11/01,16:30,23.1,60,23.9,18.5
 2004/11/01,16:45,23.3,59,23.5,18.5
 2004/11/01,17:00,24.2,89,23.2,18.3
 2004/11/01,17:15,24.8,55,23.2,18.3
 2004/11/01,17:30,24.8,57,23,18.5
 2004/11/01,17:45,24.7,58,23,18.5
 2004/11/01,18:00,25,59,22.9,18.5
 2004/11/01,18:15,25.1,60,23,18.5
 2004/11/01,18:30,25.1,61,23,18.8
 2004/11/01,18:45,24.8,62,22.8,18.7
 2004/11/01,19:00,24.7,62,22.8,18.7
 2004/11/01,19:15,24.6,61,22.8,18.7
 2004/11/01,19:30,24.5,60,22.7,18.7
 2004/11/01,19:45,24.7,59,22.6,18.4
 2004/11/01,20:00,24.5,59,22.7,18.5
 2004/11/01,20:15,24.5,60,22.9,18.5
 2004/11/01,20:30,24.4,60,22.9,18.5
 2004/11/01,20:45,24.4,59,23,18.6
 2004/11/01,21:00,24.3,61,23.1,18.6
 2004/11/01,21:15,24.1,61,22.8,18.5
 2004/11/01,21:30,24.3,62,22.7,18.6
 2004/11/01,21:45,24.5,61,22.7,18.6
 2004/11/01,22:00,24.5,63,22.6,18.6
 2004/11/01,22:15,24.4,65,22.5,18.4
 2004/11/01,22:30,24.8,64,22.5,18.5
 2004/11/01,22:45,25.3,60,22.4,18.5
 2004/11/01,23:00,24.8,63,22.5,18.6
 2004/11/01,23:15,24.5,64,22.5,18.6
 2004/11/01,23:30,24.4,64,22.6,18.6
 2004/11/01,23:45,24.2,64,22.6,18.6
 2004/11/02, 0:00,24.1,64,22.5,18.7
 2004/11/02, 0:15,24.1,64,22.5,18.7
 2004/11/02, 0:30,24,63,22.4,18.8
 2004/11/02, 0:45,23.9,63,22.3,18.8
 2004/11/02, 1:00,23.9,64,22.1,18.8
 2004/11/02, 1:15,23.6,64,22,18.8
 2004/11/02, 1:30,23.5,65,21.7,18.9
 2004/11/02, 1:45,23.4,65,21.6,18.4
 2004/11/02, 2:00,23.3,65,21.5,18.4
 2004/11/02, 2:15,23.2,65,21.2,18.5
 2004/11/02, 2:30,23.1,65,21.2,18.5
 2004/11/02, 2:45,23,65,21.1,18.5
 2004/11/02, 3:00,22.9,65,21,18.6
 2004/11/02, 3:15,22.9,64,20.8,18.6
 2004/11/02, 3:30,22.8,64,20.8,18.6
 2004/11/02, 3:45,22.7,64,20.8,18.7
 2004/11/02, 4:00,22.6,64,20.6,18.7
 2004/11/02, 4:15,22.6,64,20.6,18.7
 2004/11/02, 4:30,22.5,64,20.6,18.7
 2004/11/02, 4:45,22.4,64,20.6,18.8
 2004/11/02, 5:00,22.3,64,20.4,18.8
 2004/11/02, 5:15,22.3,64,20.4,18.8
 2004/11/02, 5:30,22.3,63,20.3,18.9
 2004/11/02, 5:45,22.2,64,20.1,18.2
 2004/11/02, 6:00,22.1,64,20.1,18.2
 2004/11/02, 6:15,22,64,20.2,18.2
 2004/11/02, 6:30,23.4,59,20.2,18.5
 2004/11/02, 6:45,23.3,59,20.2,18.6
 2004/11/02, 7:00,24.1,55,20.1,18.5
 2004/11/02, 7:15,23.3,59,20.1,18.7
 2004/11/02, 7:30,23,61,20.1,18.7
 2004/11/02, 7:45,23.6,59,20.1,18.7
 2004/11/02, 8:00,23.4,59,20.1,18.5
 2004/11/02, 8:15,23.1,59,20,18.5
 2004/11/02, 8:30,22.9,60,20.2,18.3
 2004/11/02, 8:45,22.6,60,20.2,18.3
 2004/11/02, 9:00,23.1,60,20.2,18.3
 2004/11/02, 9:15,22.9,62,20.3,18.2
 2004/11/02, 9:30,22.6,64,20.3,18.4
 2004/11/02, 9:45,22.6,64,20.3,18.4
 2004/11/02,10:00,22.6,64,20.5,18.4
 2004/11/02,10:15,22.7,64,20.6,18.5
 2004/11/02,10:30,22.6,65,20.7,18.5
 2004/11/02,10:45,22.7,64,20.9,18.5
 2004/11/02,11:00,22.7,63,21.1,18.5
 2004/11/02,11:15,22.7,63,21.2,18.6
 2004/11/02,11:30,22.8,63,21.3,18.6
 2004/11/02,11:45,22.9,63,21.6,18.6
 2004/11/02,12:00,23,61,21.9,18.7
 2004/11/02,12:15,23.1,62,22.3,18.7
 2004/11/02,12:30,23.1,61,22.5,18.7
 2004/11/02,12:45,23.3,58,22.7,18.8
 2004/11/02,13:00,23.5,51,23.1,18.8
 2004/11/02,13:15,23.4,49,23.4,18.8
 2004/11/02,13:30,23.6,53,23.7,18.5
 2004/11/02,13:45,23.6,51,24,18.3
 2004/11/02,14:00,23.6,51,24.3,18.4
 2004/11/02,14:15,23.4,49,24.5,18.1
 2004/11/02,14:30,23.5,48,24.6,18.1
 2004/11/02,14:45,23.5,47,24.6,18.1
 2004/11/02,15:00,23.5,50,24.6,18.2
 2004/11/02,15:15,23.5,50,24.8,18.2
 2004/11/02,15:30,23.6,51,25,18.3
 2004/11/02,15:45,23.6,52,25,18.3
 2004/11/02,16:00,23.6,52,25.2,18.3
 2004/11/02,16:15,23.5,53,25,18.1
 2004/11/02,16:30,23.4,55,24.5,18.1
 2004/11/02,16:45,23.5,54,23.9,18.2
 2004/11/02,17:00,25.8,99,23.7,18.2
 2004/11/02,17:15,25.8,49,23.6,18.3
 2004/11/02,17:30,25,52,23.4,18.1
 2004/11/02,17:45,25.2,53,23.3,18.1
 2004/11/02,18:00,25.5,54,23.2,18.2
 2004/11/02,18:15,25.9,55,23.2,18.3
 2004/11/02,18:30,26.2,59,23.1,18.3
 2004/11/02,18:45,25.9,55,23.1,18.3
 2004/11/02,19:00,25.8,59,23,18.4
 2004/11/02,19:15,25.8,58,23,18.2
 2004/11/02,19:30,25.8,57,22.9,18.5
 2004/11/02,19:45,25.6,56,22.9,18.5
 2004/11/02,20:00,25.5,58,22.8,18.5
 2004/11/02,20:15,25.5,57,22.9,18.6
 2004/11/02,20:30,25.2,57,23,18.6
 2004/11/02,20:45,25.1,57,23.2,18.7
 2004/11/02,21:00,25.3,58,23.2,18.7
 2004/11/02,21:15,25,57,23.2,18.7
 2004/11/02,21:30,25,59,23.2,18.6
 2004/11/02,21:45,24.7,60,23.2,18.6
 2004/11/02,22:00,24.8,60,23.3,18.6
 2004/11/02,22:15,24.8,59,23.3,18.7
 2004/11/02,22:30,24.9,60,23.2,18.7
 2004/11/02,22:45,24.9,60,23.2,18.4
 2004/11/02,23:00,25,60,23.2,18.4
 2004/11/02,23:15,25,60,23.1,18.4
 2004/11/02,23:30,24.8,61,23.2,18.5
 2004/11/02,23:45,24.7,62,23,18.5
 2004/11/03, 0:00,24.6,62,23,18.6
 2004/11/03, 0:15,24.5,62,22.9,18.6
 2004/11/03, 0:30,24.2,64,22.8,18.5
 2004/11/03, 0:45,24.1,64,22.8,18.4
 2004/11/03, 1:00,24,64,22.8,18.4
 2004/11/03, 1:15,24.2,63,22.9,18.5
 2004/11/03, 1:30,24.2,62,22.7,18.5
 2004/11/03, 1:45,24.1,63,22.5,18.5
 2004/11/03, 2:00,24,63,22.3,18.6
 2004/11/03, 2:15,23.9,64,22.3,18.6
 2004/11/03, 2:30,23.9,63,22,18.6
 2004/11/03, 2:45,23.8,63,21.9,18.7
 2004/11/03, 3:00,23.7,63,21.7,18.7
 2004/11/03, 3:15,23.6,63,21.7,18.8
 2004/11/03, 3:30,23.7,62,21.5,18.8
 2004/11/03, 3:45,23.7,62,21.4,18.8
 2004/11/03, 4:00,23.6,61,21.4,18.9
 2004/11/03, 4:15,23.6,61,21.2,18.9
 2004/11/03, 4:30,23.5,61,21.1,19
 2004/11/03, 4:45,23.4,61,20.9,19
 2004/11/03, 5:00,23.2,61,20.9,19
 2004/11/03, 5:15,23.2,60,20.7,19.1
 2004/11/03, 5:30,23.1,60,20.6,19.1
 2004/11/03, 5:45,23.1,60,20.5,19.1
 2004/11/03, 6:00,22.9,60,20.4,19.2
 2004/11/03, 6:15,22.9,59,20.3,19.2
 2004/11/03, 6:30,22.8,59,20.1,19.2
 2004/11/03, 6:45,22.7,59,20.3,18.2
 2004/11/03, 7:00,22.6,59,20.3,18.2
 2004/11/03, 7:15,22.7,57,20.5,18
 2004/11/03, 7:30,23.1,58,20.5,18.5
 2004/11/03, 7:45,23.2,60,20.4,18.5
 2004/11/03, 8:00,23.3,58,20.4,18.6
 2004/11/03, 8:15,23,58,20.5,18.6
 2004/11/03, 8:30,22.9,58,20.4,18.3
 2004/11/03, 8:45,22.7,58,20.6,18.3
 2004/11/03, 9:00,22.7,58,20.8,18.3
 2004/11/03, 9:15,23.1,57,21,18.3
 2004/11/03, 9:30,23,56,20.3,18.3
 2004/11/03, 9:45,22.5,51,20.3,18.4
 2004/11/03,10:00,22.4,49,19.5,18.4
 2004/11/03,10:15,22.3,47,19.5,18.4
 2004/11/03,10:30,22.2,46,19.7,18.5
 2004/11/03,10:45,22.4,47,20,18.1
 2004/11/03,11:00,22.5,45,20.3,18.1
 2004/11/03,11:15,22.6,44,20.6,18.2
 2004/11/03,11:30,22.7,42,20.8,18.2
 2004/11/03,11:45,22.7,41,21,18.2
 2004/11/03,12:00,23,39,21.1,18.3
 2004/11/03,12:15,23.5,43,21.1,18.3
 2004/11/03,12:30,23.5,40,21.2,18.3
 2004/11/03,12:45,23.3,38,21.4,18.9
 2004/11/03,13:00,23.3,37,21.6,18.5
 2004/11/03,13:15,23.5,39,21.8,18.6
 2004/11/03,13:30,23.6,41,21.7,18.6
 2004/11/03,13:45,23.4,43,21.6,18.6
 2004/11/03,14:00,23.3,44,21.5,18.6
 2004/11/03,14:15,23.2,44,21.5,18
 2004/11/03,14:30,23.2,45,21.6,18.1
 2004/11/03,14:45,23.2,46,21.8,18.1
 2004/11/03,15:00,23.3,46,22.2,18.1
 2004/11/03,15:15,23.2,47,22.1,18.2
 2004/11/03,15:30,23.2,47,22.1,18.2
 2004/11/03,15:45,23.1,47,21.8,18.2
 2004/11/03,16:00,23,47,22,18.3
 2004/11/03,16:15,23,47,22.3,18.3
 2004/11/03,16:30,22.9,47,22,18.4
 2004/11/03,16:45,22.9,47,21.6,18.1
 2004/11/03,17:00,23.5,53,21.5,18.1
 2004/11/03,17:15,24.5,80,21.3,18.2
 2004/11/03,17:30,24.6,46,21.3,18.2
 2004/11/03,17:45,24.6,46,21.3,18.2
 2004/11/03,18:00,24.7,47,21.3,18.3
 2004/11/03,18:15,25,49,21.3,18
 2004/11/03,18:30,24.3,49,21.2,18
 2004/11/03,18:45,24.4,50,21.2,18
 2004/11/03,19:00,24.4,50,21.1,18.1
 2004/11/03,19:15,24.3,50,21.1,18.2
 2004/11/03,19:30,24.1,51,21,18.2
 2004/11/03,19:45,23.8,49,21,18.4
 2004/11/03,20:00,24,50,21,18.5
 2004/11/03,20:15,24,49,20.9,18.5
 2004/11/03,20:30,24,49,21.1,18.5
 2004/11/03,20:45,24,51,21.3,18.5
 2004/11/03,21:00,23.9,50,21.3,18.5
 2004/11/03,21:15,23.9,50,21.1,18.1
 2004/11/03,21:30,23.7,51,21.1,18.1
 2004/11/03,21:45,23.6,52,20.9,18.1
 2004/11/03,22:00,23.5,52,20.9,18.2
 2004/11/03,22:15,23.4,53,20.8,18.2
 2004/11/03,22:30,23.5,54,20.8,18.1
 2004/11/03,22:45,23.4,54,20.6,18.1
 2004/11/03,23:00,23.2,56,20.6,18.1
 2004/11/03,23:15,22.9,57,20.7,18.1
 2004/11/03,23:30,22.8,57,20.5,18.2
 2004/11/03,23:45,22.6,58,20.5,18.2
 2004/11/04, 0:00,22.5,58,20.7,18
 2004/11/04, 0:15,22.6,58,20.8,18.2
 2004/11/04, 0:30,22.5,58,20.7,17.9
 2004/11/04, 0:45,22.4,58,20.5,18
 2004/11/04, 1:00,22.3,58,20.4,18
 2004/11/04, 1:15,22.1,59,20.2,18
 2004/11/04, 1:30,22,59,19.9,18
 2004/11/04, 1:45,21.8,59,19.8,18.1
 2004/11/04, 2:00,21.7,59,19.7,18.1
 2004/11/04, 2:15,21.6,59,19.4,18.1
 2004/11/04, 2:30,21.5,59,19.3,18.1
 2004/11/04, 2:45,21.4,58,19.1,18.1
 2004/11/04, 3:00,21.3,58,19.1,18.2
 2004/11/04, 3:15,21.2,58,18.9,18.2
 2004/11/04, 3:30,21.1,58,18.8,18.2
 2004/11/04, 3:45,21,58,18.6,18.2
 2004/11/04, 4:00,20.9,58,18.6,18.2
 2004/11/04, 4:15,20.8,58,18.4,18.3
 2004/11/04, 4:30,20.7,58,18.3,18.3
 2004/11/04, 4:45,20.6,57,18.2,18.3
 2004/11/04, 5:00,20.6,57,18,18.3
 2004/11/04, 5:15,20.5,57,18,18.3
 2004/11/04, 5:30,20.4,57,17.9,18.3
 2004/11/04, 5:45,20.3,57,17.7,18.4
 2004/11/04, 6:00,20.2,56,17.6,18.4
 2004/11/04, 6:15,20.2,56,17.5,18.4
 2004/11/04, 6:30,20.1,56,17.5,18.4
 2004/11/04, 6:45,20,55,17.9,18.4
 2004/11/04, 7:00,20.1,57,17.9,18.2
 2004/11/04, 7:15,20.7,56,17.7,18
 2004/11/04, 7:30,21.3,51,17.7,18.3
 2004/11/04, 7:45,21,54,17.6,18.3
 2004/11/04, 8:00,20.6,54,17.7,18.2
 2004/11/04, 8:15,20.5,56,18,18.2
 2004/11/04, 8:30,20.5,58,18,18.2
 2004/11/04, 8:45,20.6,58,18,18.2
 2004/11/04, 9:00,20.5,52,18.1,18.2
 2004/11/04, 9:15,20.2,56,17.9,18.2
 2004/11/04, 9:30,20.7,52,18.1,18.2
 2004/11/04, 9:45,20.5,52,18,18.2
 2004/11/04,10:00,20.6,54,18.2,18.2
 2004/11/04,10:15,20.9,59,18.3,17.5
 2004/11/04,10:30,21.1,54,18.5,17.5
 2004/11/04,10:45,21.3,53,18.7,17.5
 2004/11/04,11:00,21.5,51,19.1,17.9
 2004/11/04,11:15,21.4,50,19.2,17.9
 2004/11/04,11:30,21.4,50,19.3,17.9
 2004/11/04,11:45,21.4,50,19.8,17.9
 2004/11/04,12:00,21.5,47,19.7,17.9
 2004/11/04,12:15,21.5,46,19.8,18
 2004/11/04,12:30,21.3,44,19.8,18
 2004/11/04,12:45,21.4,44,20.2,18
 2004/11/04,13:00,21.5,45,20.5,18
 2004/11/04,13:15,21.7,44,20.8,18.1
 2004/11/04,13:30,22.1,46,20.9,17.7
 2004/11/04,13:45,22.6,51,21.7,17.7
 2004/11/04,14:00,22.8,45,22,17.7
 2004/11/04,14:15,22.8,43,22,17.8
 2004/11/04,14:30,22.4,43,21.8,17.8
 2004/11/04,14:45,22.2,43,21.6,17.8
 2004/11/04,15:00,21.9,45,21.5,17.8
 2004/11/04,15:15,21.8,46,21.6,17.8
 2004/11/04,15:30,21.8,46,21.9,17.2
 2004/11/04,15:45,21.6,42,21.6,17.3
 2004/11/04,16:00,21.6,42,21.3,17.3
 2004/11/04,16:15,21.7,44,21.3,17.2
 2004/11/04,16:30,21.8,44,21.1,17.3
 2004/11/04,16:45,21.8,44,21,17.8
 2004/11/04,17:00,22,44,20.8,17.9
 2004/11/04,17:15,23.8,79,20.7,17.9
 2004/11/04,17:30,23.6,45,21,17.9
 2004/11/04,17:45,23.2,46,21,17.9
 2004/11/04,18:00,23.1,46,21,17.2
 2004/11/04,18:15,23.2,49,20.8,18
 2004/11/04,18:30,23.2,49,20.8,18.1
 2004/11/04,18:45,23.2,50,20.7,17.9
 2004/11/04,19:00,23.3,49,20.7,18
 2004/11/04,19:15,23.2,50,20.5,18
 2004/11/04,19:30,23.1,53,20.5,17.9
 2004/11/04,19:45,23,51,20.6,18
 2004/11/04,20:00,22.9,52,20.7,18
 2004/11/04,20:15,22.8,54,20.8,18
 2004/11/04,20:30,22.7,55,20.8,18
 2004/11/04,20:45,22.6,54,20.9,18
 2004/11/04,21:00,22.6,54,21,18.1
 2004/11/04,21:15,22.5,55,20.9,17.8
 2004/11/04,21:30,22.4,55,21,17.8
 2004/11/04,21:45,22.3,55,21,17.8
 2004/11/04,22:00,22.5,55,21,17.8
 2004/11/04,22:15,22.3,55,21,17.9
 2004/11/04,22:30,22.2,55,21,17.9
 2004/11/04,22:45,22.1,56,20.7,17.9
 2004/11/04,23:00,22,58,20.5,17.5
 2004/11/04,23:15,21.8,59,20.3,17.5
 2004/11/04,23:30,21.7,59,20.4,17.5
 2004/11/04,23:45,21.6,60,20.4,17.6
 2004/11/05, 0:00,21.6,60,20.4,17.6
 2004/11/05, 0:15,21.5,61,20.4,17.6
 2004/11/05, 0:30,21.5,61,20.1,17.6
 2004/11/05, 0:45,21.5,61,20.1,17.7
 2004/11/05, 1:00,21.4,61,19.9,17.7
 2004/11/05, 1:15,21.3,61,19.7,17.7
 2004/11/05, 1:30,21.2,61,19.5,17.2
 2004/11/05, 1:45,21.1,60,19.1,17.2
 2004/11/05, 2:00,21.1,60,18.9,17.2
 2004/11/05, 2:15,21,60,18.7,17.3
 2004/11/05, 2:30,20.9,61,18.7,17.3
 2004/11/05, 2:45,20.8,60,18.5,17.3
 2004/11/05, 3:00,20.7,60,18.3,17.3
 2004/11/05, 3:15,20.5,60,18.2,17.4
 2004/11/05, 3:30,20.4,60,17.9,17.4
 2004/11/05, 3:45,20.4,60,18,17.4
 2004/11/05, 4:00,20.3,60,18,17.4
 2004/11/05, 4:15,20.2,60,17.9,17.5
 2004/11/05, 4:30,20.1,60,18.1,17.5
 2004/11/05, 4:45,20,59,17.9,17.5
 2004/11/05, 5:00,20,59,17.9,17.5
 2004/11/05, 5:15,19.9,59,17.7,17.5
 2004/11/05, 5:30,19.7,60,17.5,17.5
 2004/11/05, 5:45,19.7,59,17.3,17.6
 2004/11/05, 6:00,19.6,59,17.2,17.6
 2004/11/05, 6:15,19.5,59,17.1,17.6
 2004/11/05, 6:30,19.5,59,17.2,17.6
 2004/11/05, 6:45,19.5,59,17.4,18.2
 2004/11/05, 7:00,19.6,58,17.3,18.3
 2004/11/05, 7:15,19.6,58,17.1,17.9
 2004/11/05, 7:30,20.3,60,17.1,18.3
 2004/11/05, 7:45,20.4,56,17.2,18.3
 2004/11/05, 8:00,20.1,58,17.2,18.3
 2004/11/05, 8:15,20,59,17.2,17.6
 2004/11/05, 8:30,20,59,17.1,17.4
 2004/11/05, 8:45,20.4,64,17.2,17.4
 2004/11/05, 9:00,20.3,61,17.2,17.5
 2004/11/05, 9:15,20.1,58,17.3,17.5
 2004/11/05, 9:30,20,58,17.4,17.5
 2004/11/05, 9:45,19.8,58,17.5,17.6
 2004/11/05,10:00,19.7,55,17.6,17.6
 2004/11/05,10:15,19.7,55,17.6,17.6
 2004/11/05,10:30,19.9,55,18,17.6
 2004/11/05,10:45,20,52,18.2,17.7
 2004/11/05,11:00,20.2,51,18.5,17.7
 2004/11/05,11:15,20.4,52,18.8,17.7
 2004/11/05,11:30,20.6,50,19.1,17.7
 2004/11/05,11:45,20.8,48,19.5,16.9
 2004/11/05,12:00,21.2,56,19.8,16.9
 2004/11/05,12:15,20.9,46,20.2,16.9
 2004/11/05,12:30,21.1,48,20.6,16.9
 2004/11/05,12:45,21.5,53,21,17
 2004/11/05,13:00,21.4,48,21.4,17.2
 2004/11/05,13:15,21.4,47,21.8,17.2
 2004/11/05,13:30,21.6,45,21.8,17.2
 2004/11/05,13:45,21.4,43,21.6,17.3
 2004/11/05,14:00,21.4,42,22.1,17.3
 2004/11/05,14:15,21.3,41,22.6,17.4
 2004/11/05,14:30,21.4,42,23,16.8
 2004/11/05,14:45,21.4,42,23.3,16.8
 2004/11/05,15:00,21.6,44,23.3,16.9
 2004/11/05,15:15,21.8,42,23.6,16.9
 2004/11/05,15:30,21.9,40,23.5,16.9
 2004/11/05,15:45,21.8,42,23.2,17.1
 2004/11/05,16:00,21.9,42,23.1,17.2
 2004/11/05,16:15,21.8,43,23,16.9
 2004/11/05,16:30,21.8,43,22.6,17.3
 2004/11/05,16:45,21.9,42,22.3,17.3
 2004/11/05,17:00,22.2,44,22,17.3
 2004/11/05,17:15,22.6,47,21.8,18
 2004/11/05,17:30,24,48,21.7,18.3
 2004/11/05,17:45,23.8,48,21.6,18.3
 2004/11/05,18:00,23.5,49,21.5,18.4
 2004/11/05,18:15,23.7,52,21.5,18.4
 2004/11/05,18:30,23.6,52,21.4,18.3
 2004/11/05,18:45,23.5,52,21.2,18.3
 2004/11/05,19:00,23.4,54,21.1,18.1
 2004/11/05,19:15,23.2,54,21,17.8
 2004/11/05,19:30,23.1,54,20.9,17.8
 2004/11/05,19:45,23,54,20.8,17.8
 2004/11/05,20:00,22.7,55,20.7,17.8
 2004/11/05,20:15,22.6,57,20.6,17.8
 2004/11/05,20:30,22.8,53,20.6,17.3
 2004/11/05,20:45,22.6,53,20.6,17.3
 2004/11/05,21:00,22.6,53,20.5,17.3
 2004/11/05,21:15,22.7,54,20.4,17.9
 2004/11/05,21:30,22.5,55,20.3,17.9
 2004/11/05,21:45,22.3,55,20.2,18
 2004/11/05,22:00,22.3,54,20.1,18
 2004/11/05,22:15,22.3,53,20.1,17.3
 2004/11/05,22:30,22.3,53,20,17.3
 2004/11/05,22:45,22.2,55,19.9,17.3
 2004/11/05,23:00,22,57,19.8,17.5
 2004/11/05,23:15,21.9,59,19,17.6
 2004/11/05,23:30,22,61,19.3,17.7
 2004/11/05,23:45,21.8,61,19.7,17.7
 2004/11/06, 0:00,21.7,60,20.1,17.7
 2004/11/06, 0:15,21.5,59,19.8,17.7
 2004/11/06, 0:30,21.4,59,19.7,17.2
 2004/11/06, 0:45,21.2,60,19.5,17.2
 2004/11/06, 1:00,21.1,61,19.5,17.3
 2004/11/06, 1:15,21,62,19.4,17.3
 2004/11/06, 1:30,20.9,63,19.3,17.3
 2004/11/06, 1:45,20.8,63,19.1,17.4
 2004/11/06, 2:00,20.7,64,19.1,17.4
 2004/11/06, 2:15,20.6,64,19,17.4
 2004/11/06, 2:30,20.4,64,18.9,17.4
 2004/11/06, 2:45,20.3,64,18.7,17.5
 2004/11/06, 3:00,20.2,64,18.8,17.5
 2004/11/06, 3:15,20.1,64,18.5,17.5
 2004/11/06, 3:30,20.2,64,18.6,17.5
 2004/11/06, 3:45,20.2,63,18.5,17.6
 2004/11/06, 4:00,20.1,63,18.5,17.6
 2004/11/06, 4:15,20.1,63,18.3,17.6
 2004/11/06, 4:30,20,63,18.3,17.6
 2004/11/06, 4:45,20,63,18.3,17.6
 2004/11/06, 5:00,20,62,18.2,17.7
 2004/11/06, 5:15,19.9,62,18,17.7
 2004/11/06, 5:30,19.8,62,17.9,17.7
 2004/11/06, 5:45,19.7,62,17.8,17.7
 2004/11/06, 6:00,19.6,62,17.8,16.8
 2004/11/06, 6:15,19.6,62,17.8,16.8
 2004/11/06, 6:30,19.4,62,17.6,16.9
 2004/11/06, 6:45,19.4,62,17.6,16.9
 2004/11/06, 7:00,19.8,59,17.6,16.9
 2004/11/06, 7:15,20.4,56,17.6,18.2
 2004/11/06, 7:30,20.5,57,17.6,18.1
 2004/11/06, 7:45,21.1,56,17.8,17.9
 2004/11/06, 8:00,20.9,56,17.7,17.9
 2004/11/06, 8:15,20.5,58,17.8,17.9
 2004/11/06, 8:30,20.2,58,17.6,18
 2004/11/06, 8:45,20.1,58,17.7,18
 2004/11/06, 9:00,20,57,17.6,18
 2004/11/06, 9:15,20,58,17.8,18
 2004/11/06, 9:30,20,58,17.7,18
 2004/11/06, 9:45,20,58,17.8,18
 2004/11/06,10:00,20.1,58,17.9,18
 2004/11/06,10:15,20.2,59,18.1,18
 2004/11/06,10:30,20.2,59,18.3,18
 2004/11/06,10:45,20.3,59,18.6,16.8
 2004/11/06,11:00,20.4,59,19,16.8
 2004/11/06,11:15,20.6,59,19.1,16.9
 2004/11/06,11:30,22.9,86,19.4,16.9
 2004/11/06,11:45,23.2,53,19.7,16.9
 2004/11/06,12:00,22.8,58,19.7,16.5
 2004/11/06,12:15,22.3,57,19.9,16.5
 2004/11/06,12:30,22.9,53,20.3,16.6
 2004/11/06,12:45,23.7,51,20.7,16.6
 2004/11/06,13:00,23.9,50,21.2,16.7
 2004/11/06,13:15,24.3,51,21.8,16.7
 2004/11/06,13:30,24.6,50,22,16.7
 2004/11/06,13:45,24.5,50,22.2,17.4
 2004/11/06,14:00,23.9,51,22.1,17.4
 2004/11/06,14:15,23.7,52,22.2,17.5
 2004/11/06,14:30,23.5,52,22.2,17.5
 2004/11/06,14:45,23.5,52,22.3,17.5
 2004/11/06,15:00,23.4,53,22.6,17.6
 2004/11/06,15:15,23.4,53,22.6,17.6
 2004/11/06,15:30,23.3,53,22.8,16.8
 2004/11/06,15:45,23.3,53,23,16.8
 2004/11/06,16:00,23.3,53,23.1,16.8
 2004/11/06,16:15,23.3,53,23,16.9
 2004/11/06,16:30,23.2,53,22.7,16.6
 2004/11/06,16:45,23.2,53,22.5,16.7
 2004/11/06,17:00,23.1,53,22.3,18.1
 2004/11/06,17:15,23,54,22.1,18.1
 2004/11/06,17:30,23,55,22,18.1
 2004/11/06,17:45,23,55,21.9,18.2
 2004/11/06,18:00,23.1,56,21.8,17.7
 2004/11/06,18:15,23.4,67,21.9,18.1
 2004/11/06,18:30,23.3,58,21.9,18.1
 2004/11/06,18:45,23.4,59,21.8,17.4
 2004/11/06,19:00,23.4,59,21.7,17.5
 2004/11/06,19:15,23.4,59,21.6,17.1
 2004/11/06,19:30,23.7,58,21.6,17.2
 2004/11/06,19:45,23.7,58,21.7,17.2
 2004/11/06,20:00,23.9,58,21.6,17.2
 2004/11/06,20:15,23.8,58,21.6,17.3
 2004/11/06,20:30,23.9,56,21.5,17.3
 2004/11/06,20:45,23.7,56,21.3,17.2
 2004/11/06,21:00,23.4,57,21.3,17.2
 2004/11/06,21:15,23.3,57,21.2,17.2
 2004/11/06,21:30,23.2,58,21.1,17.3
 2004/11/06,21:45,23.4,58,21.1,17.2
 2004/11/06,22:00,23.5,60,21.1,17.2
 2004/11/06,22:15,23.5,61,21.1,17.3
 2004/11/06,22:30,23.3,62,21.1,17.5
 2004/11/06,22:45,23.2,60,21,17.6
 2004/11/06,23:00,23.1,59,21,17.6
 2004/11/06,23:15,23,60,20.9,17.6
 2004/11/06,23:30,23,59,20.7,17.7
 2004/11/06,23:45,22.8,59,20.7,17.7
 2004/11/07, 0:00,22.8,59,20.6,17.2
 2004/11/07, 0:15,22.7,59,20.6,17.7
 2004/11/07, 0:30,22.5,61,20.7,17.8
 2004/11/07, 0:45,22.4,62,20.8,17.8
 2004/11/07, 1:00,22.4,63,20.8,17.8
 2004/11/07, 1:15,22.3,63,20.7,17.8
 2004/11/07, 1:30,22.2,63,20.5,17.9
 2004/11/07, 1:45,22.1,63,20.3,17.9
 2004/11/07, 2:00,22,63,20.2,17.9
 2004/11/07, 2:15,21.9,63,20.2,18
 2004/11/07, 2:30,21.8,63,20.2,18
 2004/11/07, 2:45,21.6,64,20.1,18
 2004/11/07, 3:00,21.5,64,19.9,18.1
 2004/11/07, 3:15,21.4,64,19.7,18.1
 2004/11/07, 3:30,21.5,63,19.8,18.1
 2004/11/07, 3:45,21.5,63,19.5,18.2
 2004/11/07, 4:00,21.4,62,19.5,18.2
 2004/11/07, 4:15,21.4,62,19.4,18.2
 2004/11/07, 4:30,21.4,62,19.3,18.3
 2004/11/07, 4:45,21.3,62,19.1,18.3
 2004/11/07, 5:00,21.3,62,19.1,18.3
 2004/11/07, 5:15,21.2,62,19,18.3
 2004/11/07, 5:30,21.1,62,18.8,18.3
 2004/11/07, 5:45,21,62,18.7,18.4
 2004/11/07, 6:00,21,62,18.5,18.4
 2004/11/07, 6:15,20.9,62,18.5,18.4
 2004/11/07, 6:30,20.9,62,18.4,18.4
 2004/11/07, 6:45,20.7,62,18.2,18.4
 2004/11/07, 7:00,20.7,62,18.3,18.5
 2004/11/07, 7:15,21,62,18.4,18.5
 2004/11/07, 7:30,22.3,58,18.7,18.5
 2004/11/07, 7:45,22.7,55,19.1,17.8
 2004/11/07, 8:00,22.9,53,19.2,17.8
 2004/11/07, 8:15,22.4,55,19.2,17.8
 2004/11/07, 8:30,21.8,57,19,17.8
 2004/11/07, 8:45,21.1,53,18.8,17.9
 2004/11/07, 9:00,20.8,57,18.9,17.9
 2004/11/07, 9:15,20.7,59,18.9,17.6
 2004/11/07, 9:30,20.7,59,19,17.6
 2004/11/07, 9:45,20.7,61,19.1,17.8
 2004/11/07,10:00,20.7,61,19.3,17.8
 2004/11/07,10:15,20.8,60,19.5,17
 2004/11/07,10:30,20.9,59,19.6,17
 2004/11/07,10:45,20.8,58,19.7,17.1
 2004/11/07,11:00,21.2,60,20,16.8
 2004/11/07,11:15,21.5,61,20.2,16.8
 2004/11/07,11:30,21.6,61,20.7,16.8
 2004/11/07,11:45,21.9,61,21.1,16.9
 2004/11/07,12:00,21.9,59,21.3,16.9
 2004/11/07,12:15,21.9,58,21.5,16.9
 2004/11/07,12:30,21.8,55,21.7,16.9
 2004/11/07,12:45,21.9,55,22.4,16.9
 2004/11/07,13:00,22,55,22.4,18.1
 2004/11/07,13:15,22.1,56,22.5,18.1
 2004/11/07,13:30,22.1,57,22.9,18.1
 2004/11/07,13:45,22.1,57,23.1,18.1
 2004/11/07,14:00,22.2,58,23,18.2
 2004/11/07,14:15,22.2,58,23.2,18.2
 2004/11/07,14:30,22.2,58,23.1,18.2
 2004/11/07,14:45,22.2,58,23,18.2
 2004/11/07,15:00,22.2,59,23.2,18.3
 2004/11/07,15:15,22.3,58,23.5,18.3
 2004/11/07,15:30,22.4,58,23.6,18.3
 2004/11/07,15:45,22.4,57,23.5,18.4
 2004/11/07,16:00,22.4,57,23.6,18.4
 2004/11/07,16:15,22.4,57,23.5,18.4
 2004/11/07,16:30,22.4,57,23,18.5
 2004/11/07,16:45,22.4,57,22.7,18.5
 2004/11/07,17:00,22.4,57,22.6,17.8
 2004/11/07,17:15,22.5,57,22.5,17.8
 2004/11/07,17:30,22.7,56,22.3,17.8
 2004/11/07,17:45,22.9,56,22.2,17.9
 2004/11/07,18:00,23,56,21.8,17.1
 2004/11/07,18:15,23.3,57,22,17.1
 2004/11/07,18:30,23.4,57,22.1,17.2
 2004/11/07,18:45,23.3,56,22,16.9
 2004/11/07,19:00,23.5,56,22,17
 2004/11/07,19:15,23.5,58,21.9,17
 2004/11/07,19:30,23.4,59,21.8,17.1
 2004/11/07,19:45,23.4,58,21.8,17
 2004/11/07,20:00,23.4,58,21.7,17.1